Historyczne dane pomiarowe

Dodano dane terminowe – wersja testowa.

Dane z okresu 1951-2019

Wersja bazy: 1.34 [2019-03-16, lista zmian], aktualizacja planowana na 2019-04-15

Dane meteo z obszaru Polski uzyskane na podstawie danych udostępnionych przez Instytut Meteorologii i Gospodarki Wodnej – Państwowy Instytut Badawczy.

 

Wybierz Datę:    

       

TemperaturaWilgotnośćWiatrCiśnienieOpadyŚniegCzas trwania zjawisk
 Stacja t tx tn tng RH VA  wxwx mslp ppp RRR   cm mm wxwxwxwxwxwxwx
2019-07-25 20.7 28.4 12.9 11.8-------- 0.5------------
2019-07-24 19.2 26.4 11.0 10.9-------- 0.3------------
2019-07-23 17.8 25.4 10.0 8.4-------- 0.0------------
2019-07-22 18.9 23.8 14.4 14.7-------- 0.0------------
2019-07-21 21.4 30.0 12.0 12.0-------- 8.5------------
2019-07-20 19.8 26.4 10.5 9.9-------- 0.0------------
2019-07-19 18.8 25.9 11.2 7.4-------- 0.0------------
2019-07-18 16.8 22.8 10.0 9.9-------- 0.0------------
2019-07-17 14.1 19.8 9.5 8.9-------- 2.3------------
2019-07-16 15.6 21.5 8.0 6.9-------- 5.6------------
2019-07-15 15.7 22.8 8.0 5.5-------- 0.0------------
2019-07-14 15.2 21.3 9.0 7.9-------- 3.4------------
2019-07-13 16.3 23.3 7.0 8.9-------- 0.0------------
2019-07-12 16.2 21.3 11.0 9.4-------- 0.0------------
2019-07-11 14.8 18.4 10.0 10.4-------- 0.0------------
2019-07-10 13.4 17.6 10.5 10.4-------- 11.7------------
2019-07-09 13.5 16.7 10.5 10.0-------- 10.9------------
2019-07-08 13.7 20.2 9.5 9.4-------- 3.5------------
2019-07-07 16.2 20.5 12.4 12.8-------- 0.6------------
2019-07-06 14.8 21.3 7.5 5.9-------- 0.4------------
2019-07-05 14.7 19.1 10.5 8.9-------- 1.2------------
2019-07-04 13.7 19.8 6.5 6.4-------- 0.2------------
2019-07-03 13.9 18.3 10.0 8.1-------- 2.3------------
2019-07-02 17.0 22.6 12.4 13.8-------- 0.0------------
2019-07-01 21.5 28.9 14.4 13.8-------- 4.7------------
2019-06-30 23.0 30.9 13.4 13.8-- 0.3----- 0.0------------
2019-06-29 15.9 23.3 6.5 4.0-- 3.0----- 0.0------------
2019-06-28 15.7 21.8 8.5 7.9-- 3.3----- 0.0------------
2019-06-27 21.2 29.9 16.8 17.4-- 3.0----- 0.9------------
2019-06-26 25.9 33.4 18.3 16.3-- 4.7----- 2.8------------
2019-06-25 21.8 29.4 11.8 8.5-- 3.3----- 0.0------------
2019-06-24 19.7 27.4 11.5 7.1-- 3.7----- 0.0------------
2019-06-23 18.3 26.4 9.4 6.9-- 3.3----- 0.0------------
2019-06-22 20.0 24.4 16.3 15.5-- 5.3----- 0.0------------
2019-06-21 20.2 26.4 16.8 16.9-- 2.0----- 0.8------------
2019-06-20 22.7 30.0 16.8 14.7-- 5.0----- 0.0------------
2019-06-19 21.8 28.9 11.0 8.9-- 2.7----- 0.0------------
2019-06-18 19.6 25.9 10.5 7.4-- 2.3----- 0.0------------
2019-06-17 19.6 24.6 16.5 16.2-- 4.7----- 0.0------------
2019-06-16 20.8 26.3 16.2 14.7-- 5.7----- 0.0------------
2019-06-15 22.4 28.4 13.9 11.8-- 3.3----- 3.0------------
2019-06-14 22.4 28.4 15.9 15.2-- 3.3----- 0.0------------
2019-06-13 24.2 32.9 17.5 14.7-- 3.3----- 0.9------------
2019-06-12 25.0 32.4 14.9 13.2-- 2.0----- 2.2------------
2019-06-11 24.8 32.4 15.9 13.3-- 2.0----- 0.0------------
2019-06-10 19.9 27.4 9.0 5.9-- 2.7----- 0.0------------
2019-06-09 19.3 24.4 12.9 13.3-- 0.3----- 0.0------------
2019-06-08 20.7 26.9 14.4 13.3-- 5.3----- 0.0------------
2019-06-07 20.2 27.9 14.4 12.3-- 4.0----- 1.7------------
2019-06-06 21.6 25.9 15.9 13.8-- 3.3----- 3.7------------
2019-06-05 21.6 28.5 12.9 10.4-- 1.3----- 0.0------------
2019-06-04 20.4 27.4 9.5 6.9-- 0.7----- 0.0------------
2019-06-03 16.8 23.8 6.0 4.5-- 0.3----- 0.0------------
2019-06-02 18.6 23.8 11.5 10.9-- 2.0----- 0.0------------
2019-06-01 16.4 21.3 10.5 8.9-- 4.0----- 0.0------------
2019-05-31 14.4 21.3 4.0 3.0-- 2.7----- 0.0------------
2019-05-30 12.2 18.8 3.1 2.5-- 1.0----- 0.0------------
2019-05-29 13.6 17.8 10.0 11.4-- 6.7----- 0.3------------
2019-05-28 16.9 23.3 11.5 9.4-- 7.0----- 14.9------------
2019-05-27 18.3 23.8 12.4 11.8-- 6.0----- 1.2------------
69.2 ms

 

Źródłem pochodzenia danych jest Instytut Meteorologii i Gospodarki Wodnej – Państwowy Instytut Badawczy. Dane Instytutu Meteorologii i Gospodarki Wodnej – Państwowego Instytutu Badawczego zostały przetworzone.

Dane źródłowe można odnaleźć na stronie https://dane.imgw.pl